Weather History for Muskogee, OK

Change the Weather History Date:

Friday, September 13, 2013

  Actual Average Record
Temperature  
Mean Temperature 82 °F -  
Max Temperature 91 °F 83 °F 100 °F (2011)
Min Temperature 70 °F 61 °F 50 °F (2006)
Cooling Degree Days 16    
Growing Degree Days 32 (Base 50)    
Moisture  
Dew Point 61 °F    
Average Humidity 56    
Maximum Humidity 87    
Minimum Humidity 30    
Precipitation  
Precipitation 0.00 in - - ()
Sea Level Pressure  
Sea Level Pressure 30.00 in    
Wind  
Wind Speed 9 mph (NE)    
Max Wind Speed 15 mph    
Max Gust Speed 21 mph    
Visibility 10 miles    
Events      
Averages and records for this station are not official NWS values.
T = Trace of Precipitation, MM = Missing Value Source: NWS Daily Summary

Daily Weather History Graph

Daily Weather History Graph

Search for Another Location

Airport:

Trip Planner

Search our weather history database for the weather conditions in past years. The results will help you decide how hot, cold, wet, or windy it might be!

Date:

Astronomy

Sep. 13, 2013 Rise Set
Actual Time 7:02 AM CDT 7:31 PM CDT
Civil Twilight 6:37 AM CDT 7:56 PM CDT
Nautical Twilight 6:07 AM CDT 8:26 PM CDT
Astronomical Twilight 5:36 AM CDT 8:57 PM CDT
Moon 3:13 PM CDT (9/13) 12:42 AM CDT (9/13)
Length of Visible Light 13h 19m
Length of Day
12h 28m
First Quarter, 61% of the Moon is Illuminated
Sep 13
First Quarter
Sep 19
Full
Sep 26
Last Quarter
Oct 4
New
Oct 11
First Quarter

Hourly Weather History & Observations

Time (CDT) Temp. Heat Index Dew Point Humidity Pressure Visibility Wind Dir Wind Speed Gust Speed Precip Events Conditions
12:53 AM 78.1 °F - 69.1 °F 74% 30.01 in 10.0 mi NNE 9.2 mph - N/A   Clear
1:53 AM 75.9 °F - 68.0 °F 76% 30.01 in 10.0 mi North 6.9 mph - N/A   Partly Cloudy
2:53 AM 75.0 °F - 68.0 °F 79% 30.00 in 10.0 mi North 5.8 mph - N/A   Clear
3:53 AM 73.9 °F - 68.0 °F 82% 30.00 in 10.0 mi North 6.9 mph - N/A   Clear
4:53 AM 73.9 °F - 68.0 °F 82% 30.00 in 10.0 mi North 6.9 mph - N/A   Clear
5:53 AM 72.0 °F - 68.0 °F 87% 30.01 in 10.0 mi North 4.6 mph - N/A   Clear
6:53 AM 73.0 °F - 66.9 °F 81% 30.01 in 10.0 mi NNE 9.2 mph - N/A   Clear
7:53 AM 73.9 °F - 66.0 °F 76% 30.03 in 10.0 mi NNE 8.1 mph - N/A   Clear
8:53 AM 77.0 °F - 64.0 °F 64% 30.04 in 10.0 mi NE 11.5 mph - N/A   Clear
9:53 AM 80.1 °F 81.5 °F 63.0 °F 56% 30.05 in 10.0 mi NE 9.2 mph - N/A   Mostly Cloudy
10:53 AM 81.0 °F 81.7 °F 61.0 °F 50% 30.05 in 10.0 mi ENE 12.7 mph - N/A   Partly Cloudy
11:53 AM 82.9 °F 83.7 °F 62.1 °F 49% 30.05 in 10.0 mi ESE 13.8 mph - N/A   Scattered Clouds
12:53 PM 84.9 °F 84.8 °F 60.1 °F 43% 30.03 in 10.0 mi ESE 12.7 mph - N/A   Clear
1:53 PM 86.0 °F 85.7 °F 60.1 °F 41% 30.01 in 10.0 mi East 9.2 mph 16.1 mph N/A   Partly Cloudy
2:53 PM 87.1 °F 86.7 °F 60.1 °F 40% 29.98 in 10.0 mi East 9.2 mph - N/A   Scattered Clouds
3:53 PM 89.1 °F 88.8 °F 60.1 °F 38% 29.95 in 10.0 mi NE 4.6 mph - N/A   Clear
4:53 PM 91.0 °F 89.2 °F 55.9 °F 30% 29.93 in 10.0 mi NE 13.8 mph 20.7 mph N/A   Clear
5:53 PM 89.1 °F 87.1 °F 55.0 °F 31% 29.93 in 10.0 mi North 15.0 mph 19.6 mph N/A   Clear
6:53 PM 84.0 °F 82.6 °F 54.0 °F 35% 29.94 in 10.0 mi North 11.5 mph - N/A   Clear
7:53 PM 79.0 °F - 54.0 °F 42% 29.94 in 10.0 mi North 8.1 mph - N/A   Clear
8:53 PM 73.9 °F - 55.0 °F 52% 29.97 in 10.0 mi NNE 8.1 mph - N/A   Clear
9:53 PM 73.9 °F - 51.1 °F 45% 29.99 in 10.0 mi NE 9.2 mph - N/A   Clear
10:53 PM 73.0 °F - 50.0 °F 44% 29.99 in 10.0 mi ENE 6.9 mph - N/A   Clear
11:53 PM 70.0 °F - 51.1 °F 51% 29.99 in 10.0 mi ENE 5.8 mph - N/A   Clear